This is the latest recevied weather packets stored in our database for station/object LX0WX-13. If no packets are shown the sender has not sent any weather packets the latest 10 day(s).
| Time | Temp. | Humidity | Pressure | Rain* | Wind** | Luminosity | Snow |
|---|---|---|---|---|---|---|---|
| 1777907755 | 11.11° C | 84% | 1009.7 hPa | 0.51 mm | - | - | - |
| 1777907455 | 11.67° C | 84% | 1009.7 hPa | 0.51 mm | - | - | - |
| 1777907155 | 11.67° C | 84% | 1009.6 hPa | 0.51 mm | - | - | - |
| 1777906855 | 11.67° C | 83% | 1009.6 hPa | 0.51 mm | - | - | - |
| 1777906555 | 11.67° C | 83% | 1009.7 hPa | 0 mm | - | - | - |
| 1777906255 | 11.67° C | 83% | 1009.7 hPa | 0 mm | - | - | - |
| 1777905955 | 11.67° C | 82% | 1009.8 hPa | 0 mm | - | - | - |
| 1777905655 | 11.67° C | 82% | 1009.7 hPa | 0 mm | - | - | - |
| 1777905355 | 11.67° C | 81% | 1009.7 hPa | 0 mm | - | - | - |
| 1777905055 | 12.22° C | 81% | 1009.8 hPa | 0 mm | - | - | - |
| 1777904755 | 12.22° C | 80% | 1010 hPa | 0 mm | - | - | - |
| 1777904455 | 12.22° C | 79% | 1010 hPa | 0 mm | - | - | - |
| 1777904155 | 12.22° C | 78% | 1009.7 hPa | 0 mm | - | - | - |
| 1777903856 | 12.78° C | 78% | 1009.8 hPa | 0 mm | - | - | - |
| 1777903556 | 12.78° C | 78% | 1009.8 hPa | 0 mm | - | - | - |
| 1777903255 | 12.78° C | 78% | 1009.9 hPa | 0 mm | - | - | - |
| 1777902955 | 13.33° C | 79% | 1010 hPa | 0.51 mm | - | - | - |
| 1777902656 | 13.33° C | 80% | 1010.1 hPa | 0.51 mm | - | - | - |
| 1777902356 | 12.78° C | 81% | 1010.2 hPa | 0.51 mm | - | - | - |
| 1777902056 | 12.78° C | 81% | 1010 hPa | 0.51 mm | - | - | - |
| 1777901756 | 12.22° C | 80% | 1010 hPa | 0.51 mm | - | - | - |
| 1777901456 | 12.22° C | 80% | 1010.1 hPa | 0.51 mm | - | - | - |
| 1777901156 | 12.22° C | 80% | 1010.1 hPa | 0.51 mm | - | - | - |
| 1777900856 | 12.78° C | 79% | 1010.2 hPa | 0.51 mm | - | - | - |
| 1777900556 | 12.78° C | 79% | 1010.3 hPa | 0.51 mm | - | - | - |
* Rain latest hour (hover to see other rain measurements)
** Current wind speed in m/s (hover to see current wind gust speed)